Location: Clarks Summit,Pa.
(41.5000°N, 75.6000°W)
Time: 13:35:19
(UTC-05:00)

BlueWalker 3 - Pass Details

Date: 08 December 2022
Orbit: 499 x 517 km, 53.2° (Epoch: 28 January)

Event Time Altitude Azimuth Distance (km) Brightness Sun altitude
Rises 17:05:26 0° 311° (NW) 2,633 5.9 -6.3°
Reaches altitude 10° 17:08:03 10° 327° (NNW) 1,740 4.8 -6.8°
Maximum altitude 17:11:07 21° 19° (NNE) 1,180 3.4 -7.3°
Drops below altitude 10° 17:14:10 10° 70° (ENE) 1,725 4.0 -7.8°
Enters shadow 17:14:11 10° 70° (ENE) 1,731 4.0 -7.8°
